Terminal Aerodrome Forecast
Issued by NWS

Home | Current Version | Previous Version | Text Only | Print | Product List | Glossary On
Versions: 1 2 3 4 5 6 7 8 9 10 11 12 13
000
FTUS44 KEPZ 271700 RRA
TAFLRU
TAF
KLRU 271748Z 2718/2818 03009G20KT P6SM VCSH BKN050 BKN250
     FM280600 07010KT P6SM SCT070 SCT100 SCT250=

USA.gov is the U.S. government's official web portal to all federal, state and local government web resources and services.